Voltar ao catálogo

FENGYUN 1C DEB

AtivoPO
NORAD 37441·DEBRIS·🇨🇳 China

Lançado May 10, 1999 de Taiyuan Satellite Launch Center

Loading…

Próximas Passagens (próximas 24 horas)

TLE

AtualizadoSource: Space-Track

Época: Sep 12, 2026, 06:48 UTC

1 37441U 99025EHK 26255.28333525  .00000556  00000-0  82118-3 0  9994
2 37441  99.1461  70.8348 0508069 122.1220 243.0251 13.14715920857661

Acompanhe FENGYUN 1C DEB em tempo real com AllMySat

Download on the App Store